When you browse on this site, cookies collect data to enhance your experience and personalize the content and advertising you see.
Visit our Privacy Policy to learn more. By continuing to use the site, you agree to this use of cookies and data.
  • în România
  • Lista ţărilor
  • Pe 7 zile
  • Temperatura apei
  • Hartă satelitară
  • Meteo pe hartă
  • Widget-uri
  • user-avatar
    Intrare

    Meteo pe oră la Tirana

    Astăzi, 17 Ianuarie, Joi

    Timp Temperatura Precipitaţii Vânt Presiune Umiditate
    00:00 +2°C° 0 mm 3 m/s 759 mmHg 65%
    01:00 +2°C° 0 mm 3 m/s 759 mmHg 65%
    02:00 +1°C° 0 mm 4 m/s 758 mmHg 65%
    03:00 +1°C° 0 mm 4 m/s 758 mmHg 65%
    04:00 +1°C° 0 mm 4 m/s 758 mmHg 64%
    05:00 +1°C° 0 mm 4 m/s 758 mmHg 64%
    06:00 +1°C° 0 mm 4 m/s 758 mmHg 64%
    07:00 +1°C° 0 mm 4 m/s 758 mmHg 64%
    08:00 +4°C° 0 mm 4 m/s 758 mmHg 60%
    09:00 +6°C° 0 mm 4 m/s 758 mmHg 56%
    10:00 +8°C° 0 mm 3 m/s 757 mmHg 51%
    11:00 +9°C° 0 mm 3 m/s 757 mmHg 49%
    12:00 +10°C° 0 mm 3 m/s 757 mmHg 47%
    13:00 +11°C° 0 mm 3 m/s 757 mmHg 44%
    14:00 +12°C° 0 mm 2 m/s 757 mmHg 48%
    15:00 +10°C° 0 mm 2 m/s 756 mmHg 51%
    16:00 +9°C° 0 mm 2 m/s 756 mmHg 54%
    17:00 +8°C° 0 mm 2 m/s 756 mmHg 55%
    18:00 +7°C° 0 mm 3 m/s 756 mmHg 56%
    19:00 +5°C° 0 mm 3 m/s 756 mmHg 56%
    20:00 +5°C° 0 mm 4 m/s 756 mmHg 54%
    21:00 +5°C° 0 mm 4 m/s 756 mmHg 52%
    22:00 +4°C° 0 mm 4 m/s 756 mmHg 50%
    23:00 +4°C° 0 mm 4 m/s 756 mmHg 50%

    Mâine, 18 Ianuarie, Vineri

    Timp Temperatura Precipitaţii Vânt Presiune Umiditate
    00:00 +3°C° 0 mm 5 m/s 756 mmHg 50%
    01:00 +3°C° 0 mm 5 m/s 756 mmHg 51%
    02:00 +5°C° 0 mm 5 m/s 755 mmHg 53%
    03:00 +5°C° 0 mm 5 m/s 755 mmHg 55%
    04:00 +5°C° 0 mm 5 m/s 755 mmHg 57%
    05:00 +5°C° 0 mm 5 m/s 755 mmHg 60%
    06:00 +5°C° 0 mm 5 m/s 754 mmHg 63%
    07:00 +6°C° 0 mm 5 m/s 754 mmHg 66%
    08:00 +6°C° 0 mm 5 m/s 754 mmHg 67%
    09:00 +7°C° 0 mm 5 m/s 754 mmHg 69%
    10:00 +8°C° 0 mm 5 m/s 754 mmHg 70%
    11:00 +9°C° 0 mm 6 m/s 754 mmHg 70%
    12:00 +9°C° 0 mm 6 m/s 754 mmHg 69%
    13:00 +10°C° 0 mm 6 m/s 753 mmHg 69%
    14:00 +9°C° 0.1 mm 6 m/s 753 mmHg 70%
    15:00 +9°C° 0.1 mm 6 m/s 753 mmHg 72%
    16:00 +9°C° 0.1 mm 6 m/s 753 mmHg 73%
    17:00 +8°C° 0.1 mm 6 m/s 753 mmHg 74%
    18:00 +7°C° 0.1 mm 6 m/s 753 mmHg 75%
    19:00 +5°C° 0.1 mm 6 m/s 753 mmHg 76%
    20:00 +5°C° 0.1 mm 6 m/s 753 mmHg 77%
    21:00 +5°C° 0.1 mm 6 m/s 753 mmHg 77%
    22:00 +5°C° 0.1 mm 6 m/s 754 mmHg 77%
    23:00 +6°C° 0.1 mm 5 m/s 754 mmHg 78%

    Poimâine, 19 Ianuarie, Sâmbătă

    Timp Temperatura Precipitaţii Vânt Presiune Umiditate
    00:00 +6°C° 0.1 mm 5 m/s 753 mmHg 78%
    01:00 +6°C° 0.1 mm 5 m/s 753 mmHg 78%
    02:00 +6°C° 0 mm 5 m/s 753 mmHg 77%
    03:00 +6°C° 0 mm 5 m/s 753 mmHg 77%
    04:00 +6°C° 0 mm 4 m/s 753 mmHg 77%
    05:00 +5°C° 0 mm 4 m/s 753 mmHg 76%
    06:00 +5°C° 0 mm 4 m/s 753 mmHg 76%
    07:00 +5°C° 0 mm 4 m/s 753 mmHg 75%
    08:00 +7°C° 0 mm 4 m/s 753 mmHg 71%
    09:00 +10°C° 0 mm 3 m/s 753 mmHg 66%
    10:00 +11°C° 0 mm 3 m/s 753 mmHg 61%
    11:00 +12°C° 0 mm 3 m/s 753 mmHg 59%
    12:00 +13°C° 0 mm 3 m/s 753 mmHg 56%
    13:00 +14°C° 0 mm 3 m/s 752 mmHg 54%
    14:00 +14°C° 0.2 mm 4 m/s 752 mmHg 60%
    15:00 +13°C° 0.2 mm 4 m/s 752 mmHg 65%
    16:00 +12°C° 0.2 mm 4 m/s 752 mmHg 71%
    17:00 +11°C° 0.1 mm 4 m/s 752 mmHg 72%
    18:00 +10°C° 0.1 mm 4 m/s 752 mmHg 73%
    19:00 +8°C° 0.1 mm 4 m/s 752 mmHg 75%
    20:00 +9°C° 0.1 mm 3 m/s 752 mmHg 74%
    21:00 +9°C° 0.1 mm 3 m/s 752 mmHg 74%
    22:00 +9°C° 0.1 mm 3 m/s 752 mmHg 73%
    23:00 +8°C° 1.1 mm 3 m/s 752 mmHg 76%

    20 Ianuarie, Duminică

    Timp Temperatura Precipitaţii Vânt Presiune Umiditate
    00:00 +8°C° 1.1 mm 3 m/s 752 mmHg 78%
    01:00 +8°C° 1.1 mm 3 m/s 752 mmHg 80%
    02:00 +7°C° 0.6 mm 4 m/s 752 mmHg 80%
    03:00 +7°C° 0.6 mm 4 m/s 752 mmHg 80%
    04:00 +7°C° 0.6 mm 4 m/s 752 mmHg 79%
    05:00 +7°C° 0.3 mm 4 m/s 752 mmHg 78%
    06:00 +7°C° 0.3 mm 4 m/s 752 mmHg 77%
    07:00 +6°C° 0.3 mm 4 m/s 752 mmHg 76%
    08:00 +7°C° 0.5 mm 4 m/s 752 mmHg 75%
    09:00 +8°C° 0.5 mm 4 m/s 753 mmHg 74%
    10:00 +10°C° 0.5 mm 3 m/s 753 mmHg 73%
    11:00 +11°C° 0.2 mm 3 m/s 753 mmHg 70%
    12:00 +11°C° 0.2 mm 3 m/s 753 mmHg 68%
    13:00 +12°C° 0.2 mm 3 m/s 752 mmHg 65%
    14:00 +12°C° 0.1 mm 3 m/s 752 mmHg 67%
    15:00 +11°C° 0.1 mm 3 m/s 752 mmHg 69%
    16:00 +11°C° 0.1 mm 3 m/s 753 mmHg 72%
    17:00 +10°C° 0.4 mm 2 m/s 753 mmHg 75%
    18:00 +10°C° 0.4 mm 1 m/s 753 mmHg 79%
    19:00 +10°C° 0.4 mm 1 m/s 754 mmHg 82%
    20:00 +9°C° 0.4 mm 1 m/s 754 mmHg 83%
    21:00 +8°C° 0.4 mm 2 m/s 754 mmHg 84%
    22:00 +8°C° 0.4 mm 2 m/s 754 mmHg 85%
    23:00 +7°C° 0.3 mm 3 m/s 754 mmHg 85%

    21 Ianuarie, Luni

    Timp Temperatura Precipitaţii Vânt Presiune Umiditate
    00:00 +7°C° 0.3 mm 3 m/s 754 mmHg 84%
    01:00 +6°C° 0.3 mm 4 m/s 754 mmHg 84%
    02:00 +6°C° 0.4 mm 4 m/s 754 mmHg 83%
    03:00 +6°C° 0.4 mm 4 m/s 754 mmHg 82%
    04:00 +6°C° 0.4 mm 4 m/s 754 mmHg 80%
    05:00 +5°C° 0.2 mm 4 m/s 754 mmHg 79%
    06:00 +5°C° 0.2 mm 4 m/s 754 mmHg 78%
    07:00 +5°C° 0.2 mm 4 m/s 754 mmHg 76%
    08:00 +7°C° 0 mm 4 m/s 754 mmHg 71%
    09:00 +8°C° 0 mm 4 m/s 754 mmHg 65%
    10:00 +10°C° 0 mm 4 m/s 754 mmHg 60%
    11:00 +11°C° 0.1 mm 4 m/s 754 mmHg 58%
    12:00 +11°C° 0.1 mm 4 m/s 754 mmHg 57%
    13:00 +12°C° 0.1 mm 4 m/s 753 mmHg 55%
    14:00 +12°C° 0.1 mm 4 m/s 753 mmHg 57%
    15:00 +12°C° 0.1 mm 3 m/s 752 mmHg 59%
    16:00 +11°C° 0.1 mm 3 m/s 752 mmHg 61%
    17:00 +11°C° 0.2 mm 4 m/s 752 mmHg 63%
    18:00 +10°C° 0.2 mm 4 m/s 752 mmHg 64%
    19:00 +8°C° 0.2 mm 4 m/s 752 mmHg 66%
    20:00 +8°C° 0.5 mm 4 m/s 752 mmHg 68%
    21:00 +7°C° 0.5 mm 4 m/s 751 mmHg 70%
    22:00 +7°C° 0.5 mm 4 m/s 751 mmHg 72%
    23:00 +7°C° 1.1 mm 5 m/s 751 mmHg 74%

    22 Ianuarie, Marţi

    Timp Temperatura Precipitaţii Vânt Presiune Umiditate
    00:00 +7°C° 1.1 mm 5 m/s 750 mmHg 76%
    01:00 +7°C° 1.1 mm 5 m/s 749 mmHg 79%
    02:00 +7°C° 2.8 mm 6 m/s 749 mmHg 80%
    03:00 +5°C° 2.8 mm 6 m/s 748 mmHg 82%
    04:00 +5°C° 2.8 mm 6 m/s 747 mmHg 83%
    05:00 +6°C° 1.3 mm 7 m/s 747 mmHg 81%
    06:00 +6°C° 1.3 mm 8 m/s 747 mmHg 79%
    07:00 +6°C° 1.3 mm 9 m/s 746 mmHg 77%
    08:00 +6°C° 0.5 mm 8 m/s 746 mmHg 76%
    09:00 +7°C° 0.5 mm 8 m/s 746 mmHg 76%
    10:00 +7°C° 0.5 mm 8 m/s 746 mmHg 76%
    11:00 +9°C° 0.8 mm 8 m/s 746 mmHg 76%
    12:00 +10°C° 0.8 mm 7 m/s 745 mmHg 76%
    13:00 +10°C° 0.8 mm 7 m/s 745 mmHg 76%
    14:00 +10°C° 1 mm 6 m/s 745 mmHg 79%
    15:00 +11°C° 1 mm 4 m/s 745 mmHg 82%
    16:00 +11°C° 1 mm 3 m/s 745 mmHg 85%
    17:00 +10°C° 0.5 mm 3 m/s 745 mmHg 86%
    18:00 +10°C° 0.5 mm 2 m/s 745 mmHg 87%
    19:00 +9°C° 0.5 mm 2 m/s 745 mmHg 89%
    20:00 +9°C° 0.6 mm 2 m/s 745 mmHg 89%
    21:00 +8°C° 0.6 mm 2 m/s 745 mmHg 90%
    22:00 +8°C° 0.6 mm 2 m/s 745 mmHg 90%
    23:00 +8°C° 0.7 mm 2 m/s 745 mmHg 91%
    Arată mai mult